Tracking 20232 objects as of 21-Jan-2020
HD Live streaming from Space Station
objects crossing your sky now

SL-8 DEB

Track SL-8 DEB now!
10-day predictions


NORAD ID: 21252
Int'l Code: 1991-009BK
Perigee: 1,479.5 km
Apogee: 1,679.1 km
Inclination: 74.1 °
Period: 117.6 minutes
Semi major axis: 7950 km
RCS: 0.066 m2 (small)
Launch date: February 12, 1991
Source: Commonwealth of Independent States (former USSR) (CIS)
Launch site: PLESETSK MISSILE AND SPACE COMPLEX (PKMTR)

Note: This is SATELLITE DEBRIS
aabbcc
Your satellite tracking list
Your tracking list is empty




NASA's NSSDC Master Catalog

Two Line Element Set (TLE):
1 21252U 91009BK  20020.93334444 +.00000026 +00000-0 +35989-3 0  9994
2 21252 074.1034 189.1552 0125485 166.7364 320.0270 12.24693335290588
Source of the keplerian elements: AFSPC